COSMOS 249 DEB, 14410

Orbit data source: Space-Track

COSMOS 249 DEB, 14410 is space debris in LEO originally from a launch on Sun, 20 Oct 1968 UTC launched from the Tyuratam Missile And Space Complex (TTMTR). Debris objects in space refer to the collection of defunct objects orbiting the Earth. Examples of debris include non-operational satellites, rocket bodies, and fragments generated from explosions, collisions, or faulty payload assembly.

Loading next visibility...
Identifier
14410, 1968-091CL
Orbit
LEO
Country
Flag of CISCIS
Related business
Manufacturer
Unknown
Mission
Spacecraft
Bus & Motor
Unknown
Mass
Unknown
Launch date (UTC)
1968-10-20 (58 years ago)
Launch vehicle
Unknown
Launch site
Tyuratam Missile And Space Complex (TTMTR)
Object type
Payload
Rocket body
Debris
Shape & HBR
Unknown shape, 0.1 m
Radar Cross Section
Medium (>0.1 m² and <1 m²)

Expand to show TLE details & history
Last TLE update: 15 hours ago

TLE from 15 hours ago
0 COSMOS 249 DEB
1 14410U 68091CL  26235.86671264  .00002729  00000-0  97322-3 0  9998
2 14410  62.2080  29.1264 0299376 314.1347 197.8560 14.14155295113742
Epoch: 2026-08-23T20:48Z
TLE epoch observation values (Epoch: 2026-08-23T20:48:03.972Z)
Latitude
25.46791°
Longitude
-89.50944°
Altitude
1,053.506 km
Speed
7.223 km/s
True Right ascension
12h 58m 39s
True Declination
25° 20' 24"
Sunlit
Object was in daylight at epoch
Visualization orbit readout
Latitude
Unknown
Longitude
Unknown
Altitude
Unknown
Speed
Unknown
Apparent Right ascension
Unknown
Apparent Declination
Unknown
Sunlit
N/A
Visualization observer readout
Local Sidereal Time
02:29:50
Azimuth
Unknown
Elevation
Unknown
Doppler factor
Unknown
Orbital elements
Apogee altitude
1,060.347 km
Perigee altitude
627.913 km
Semi-major axis
7,222.267 km
Eccentricity
0.02994
Inclination
62.208°
RAAN
29.1264°
Arg. of periapsis
314.1347°
True anomaly
196.84037°
Mean anomaly
197.856°
Eccentric anomaly
197.34464°
Mean motion
3.53617 °/min
Orbital period
101.81 mins
BSTAR
0.00097322
Loading maneuver chart data...
Computing Atmospheric mass density...
Loading historical data...
Loading historical data...
Loading historical data...
Loading historical data...
Loading historical data...
Loading historical data...
Loading historical data...

Documentation

Showing up to 5 results
|